Location: Banff
(51.1670°N, 115.5670°W)
Time: 21:19:11
(UTC-06:00)

Amateur Radio Satellites - All Passes

Search period start: 30 July 2014 20:49
Search period end: 31 July 2014 20:49
Location: Banff, 51.1670°N, 115.5670°W

Satellite Date Start Highest point End Downlink Frequencies (MHz)
Time Altitude Azimuth
HO-68 30 Jul 20:59:15 21:06:12 56° 63° (ENE) 21:13:10 435.675 MHz FM
Oscar 11 30 Jul 21:21:21 21:24:41 22° 61° (ENE) 21:28:03 145.825 FM, Beacon 2401.500 USB
SO-50 30 Jul 21:24:48 21:29:32 75° 231° (SW) 21:34:19 436.795 FM
JAS-2 30 Jul 21:27:09 21:30:07 13° 280° (W) 21:33:00 435.800 - 435.900 CW/SSB, 435.910 FM
RS-15 30 Jul 21:27:47 21:38:40 61° 35° (NE) 21:49:48 29.354 - 29.394 USB, Beacon 29.352 USB
UOSAT-12 30 Jul 21:34:31 21:38:40 29° 29° (NNE) 21:42:47 437.025 FM, 437.400 FM
FUNcube-1 30 Jul 21:48:57 21:51:45 17° 59° (ENE) 21:54:32 145.950 - 145.970 MHz USB
MaSat-1 30 Jul 21:50:25 21:54:29 42° 112° (ESE) 21:59:08 437.345 MHz
STRAND 1 30 Jul 21:58:51 22:03:15 30° 299° (WNW) 22:07:37 ?
UKube-1 30 Jul 22:13:11 22:17:33 69° 257° (WSW) 22:21:56 145.840 MHz, 145.915 MHz
HO-68 30 Jul 22:47:37 22:54:12 38° 264° (W) 23:00:48 435.675 MHz FM
Oscar 11 30 Jul 22:56:25 23:00:36 50° 260° (W) 23:04:50 145.825 FM, Beacon 2401.500 USB
SO-50 30 Jul 23:07:03 23:09:21 14° 250° (WSW) 23:11:40 436.795 FM
UOSAT-12 30 Jul 23:14:33 23:19:19 79° 231° (SW) 23:24:01 437.025 FM, 437.400 FM
FUNcube-1 30 Jul 23:23:29 23:27:45 67° 258° (WSW) 23:31:57 145.950 - 145.970 MHz USB
MaSat-1 30 Jul 23:27:43 23:31:55 36° 315° (NW) 23:36:36 437.345 MHz
RS-15 30 Jul 23:40:30 23:51:07 58° 242° (WSW) 00:02:06 29.354 - 29.394 USB, Beacon 29.352 USB
ISS 31 Jul 00:02:05 00:04:35 20° 143° (SE) 00:07:05 145.800 FM
PCSat 31 Jul 00:03:01 00:04:48 12° 102° (ESE) 00:06:35 145.825 MHz
Oscar 10/S400 31 Jul 00:07:43 00:32:56 47° 165° (SSE) 07:58:04 145.825 - 145.975 CW/USB, Beacon 145.810 USB
AO-40 31 Jul 00:21:57 05:14:25 28° 182° (S) 10:37:32 Beacon 2401.320
UOSAT-12 31 Jul 00:56:17 00:58:43 14° 250° (WSW) 01:01:09 437.025 FM, 437.400 FM
MaSat-1 31 Jul 01:08:19 01:10:46 14° 339° (NNW) 01:13:19 437.345 MHz
Sapphire 31 Jul 01:09:16 01:14:08 35° 114° (ESE) 01:19:02 437.095 MHz 1200 baud AX-25 AFSK
ISS 31 Jul 01:37:34 01:40:53 67° 162° (SSE) 01:44:14 145.800 FM
PCSat 31 Jul 01:41:50 01:47:10 64° 121° (ESE) 01:52:33 145.825 MHz
RS-15 31 Jul 01:55:33 02:00:53 15° 266° (W) 02:06:19 29.354 - 29.394 USB, Beacon 29.352 USB
Oscar 16 31 Jul 01:56:11 01:58:44 14° 85° (E) 02:01:16 437.025 USB, Beacon 2401.1428
JAS-1B 31 Jul 02:06:54 02:09:56 12° 70° (ENE) 02:12:51 435.800 - 435.900 CW/SSB
ITAMSAT 1 31 Jul 02:23:17 02:23:56 10° 83° (E) 02:24:36 435.822 SSB
Uribyol 2 31 Jul 02:40:05 02:43:13 16° 87° (E) 02:46:19 436.500 FM
AO-27 31 Jul 02:41:03 02:44:09 16° 87° (E) 02:47:13 436.795 MHz FM
Sapphire 31 Jul 02:52:09 02:57:26 52° 315° (NW) 03:02:45 437.095 MHz 1200 baud AX-25 AFSK
AO-Echo 31 Jul 03:04:25 03:08:34 25° 91° (E) 03:12:36 ?
Oscar 19 31 Jul 03:04:59 03:09:59 47° 99° (E) 03:14:58 437.125 CW, 437.150 USB
ISS 31 Jul 03:14:15 03:17:38 80° 2° (N) 03:21:00 145.800 FM
Gurwin Techsat 1B 31 Jul 03:16:06 03:18:59 15° 86° (E) 03:21:51 435.225 FM
PCSat 31 Jul 03:26:04 03:30:58 34° 323° (NW) 03:35:54 145.825 MHz
Oscar 16 31 Jul 03:33:43 03:38:55 82° 105° (ESE) 03:44:06 437.025 USB, Beacon 2401.1428
OPAL 31 Jul 03:35:24 03:39:43 31° 59° (ENE) 03:44:04 ?
JAS-1B 31 Jul 03:54:02 04:03:13 50° 95° (E) 04:11:08 435.800 - 435.900 CW/SSB
ITAMSAT 1 31 Jul 03:59:19 04:04:30 65° 103° (ESE) 04:09:37 435.822 SSB
Uribyol 2 31 Jul 04:18:12 04:23:25 87° 286° (WNW) 04:28:35 436.500 FM
AO-27 31 Jul 04:19:10 04:24:24 88° 286° (WNW) 04:29:35 436.795 MHz FM
MaSat-1 31 Jul 04:26:34 04:29:56 17° 28° (NNE) 04:33:18 437.345 MHz
TMSAT-1 31 Jul 04:28:38 04:33:39 41° 97° (E) 04:38:38 436.925 FM
AO-7 31 Jul 04:31:37 04:36:48 17° 84° (E) 04:41:56 29.400 - 29.500 MHz
Sapphire 31 Jul 04:38:13 04:42:07 20° 339° (NNW) 04:46:01 437.095 MHz 1200 baud AX-25 AFSK
AO-Echo 31 Jul 04:42:42 04:47:42 54° 292° (WNW) 04:52:30 ?
Oscar 19 31 Jul 04:44:40 04:49:11 31° 298° (WNW) 04:53:42 437.125 CW, 437.150 USB
ISS 31 Jul 04:51:01 04:54:19 56° 202° (SSW) 04:57:37 145.800 FM
Gurwin Techsat 1B 31 Jul 04:54:25 04:59:47 84° 105° (ESE) 05:05:06 435.225 FM
Uosat F 31 Jul 05:03:33 05:07:20 21° 91° (E) 05:11:05 435.120 FM
PCSat 31 Jul 05:12:42 05:16:04 16° 348° (NNW) 05:19:25 145.825 MHz
OPAL 31 Jul 05:13:44 05:18:29 46° 258° (WSW) 05:23:16 ?
Oscar 16 31 Jul 05:14:04 05:17:42 20° 305° (NW) 05:21:20 437.025 USB, Beacon 2401.1428
ITAMSAT 1 31 Jul 05:39:30 05:43:36 24° 302° (WNW) 05:47:40 435.822 SSB
JAS-1B 31 Jul 05:44:36 05:53:50 54° 299° (WNW) 06:01:53 435.800 - 435.900 CW/SSB
KITSAT 1 31 Jul 05:53:52 06:00:11 26° 106° (ESE) 06:06:30 435.175 FM
Uribyol 2 31 Jul 05:58:53 06:02:12 18° 307° (NW) 06:05:30 436.500 FM
AO-27 31 Jul 05:59:51 06:03:14 18° 307° (NW) 06:06:37 436.795 MHz FM
STRAND 1 31 Jul 06:02:56 06:06:49 22° 57° (ENE) 06:10:42 ?
MaSat-1 31 Jul 06:03:20 06:08:30 49° 50° (NE) 06:13:31 437.345 MHz
TMSAT-1 31 Jul 06:08:44 06:13:32 36° 297° (WNW) 06:18:20 436.925 FM
AO-7 31 Jul 06:22:49 06:31:11 71° 106° (ESE) 06:39:27 29.400 - 29.500 MHz
AO-Echo 31 Jul 06:23:51 06:25:22 11° 312° (NW) 06:26:51 ?
Sapphire 31 Jul 06:24:34 06:27:41 15° 5° (N) 06:30:48 437.095 MHz 1200 baud AX-25 AFSK
ISS 31 Jul 06:28:29 06:30:31 15° 220° (SW) 06:32:33 145.800 FM
Gurwin Techsat 1B 31 Jul 06:35:24 06:39:09 20° 305° (NW) 06:42:53 435.225 FM
Uosat F 31 Jul 06:41:36 06:46:36 65° 290° (WNW) 06:51:32 435.120 FM
JAS-2 31 Jul 06:42:13 06:45:56 17° 83° (E) 06:49:27 435.800 - 435.900 CW/SSB, 435.910 FM
PCSat 31 Jul 06:58:09 07:01:41 17° 15° (NNE) 07:05:12 145.825 MHz
Hamsat 31 Jul 07:30:21 07:34:32 46° 99° (E) 07:38:43 145.90 MHz
JAS-1B 31 Jul 07:35:53 07:42:13 20° 323° (NW) 07:48:09 435.800 - 435.900 CW/SSB
STRAND 1 31 Jul 07:40:25 07:45:33 71° 256° (WSW) 07:50:42 ?
MaSat-1 31 Jul 07:40:56 07:45:44 35° 250° (WSW) 07:50:19 437.345 MHz
KITSAT 1 31 Jul 07:46:30 07:54:38 89° 128° (SE) 08:02:48 435.175 FM
SO-67 31 Jul 07:54:04 07:55:48 13° 89° (E) 07:57:32 435.3500 MHz FM
Sapphire 31 Jul 08:08:26 08:13:00 27° 31° (NNE) 08:17:34 437.095 MHz 1200 baud AX-25 AFSK
Saudisat 1A 31 Jul 08:08:51 08:12:57 39° 122° (ESE) 08:17:06 436.775 MHz
AO-7 31 Jul 08:16:06 08:23:31 38° 309° (NW) 08:30:54 29.400 - 29.500 MHz
Uosat F 31 Jul 08:22:12 08:24:28 13° 310° (NW) 08:26:44 435.120 FM
JAS-2 31 Jul 08:25:59 08:32:07 87° 287° (WNW) 08:37:33 435.800 - 435.900 CW/SSB, 435.910 FM
PCSat 31 Jul 08:41:34 08:46:39 38° 39° (NE) 08:51:42 145.825 MHz
Hamsat 31 Jul 09:06:50 09:10:17 24° 297° (WNW) 09:13:45 145.90 MHz
STRAND 1 31 Jul 09:24:00 09:25:41 12° 276° (W) 09:27:23 ?
SO-67 31 Jul 09:25:48 09:29:13 55° 287° (WNW) 09:32:38 435.3500 MHz FM
JAS-1B 31 Jul 09:28:42 09:29:01 10° 349° (N) 09:29:20 435.800 - 435.900 CW/SSB
KITSAT 1 31 Jul 09:43:33 09:51:01 38° 333° (NNW) 09:58:30 435.175 FM
Saudisat 1A 31 Jul 09:48:22 09:52:34 41° 322° (NW) 09:56:48 436.775 MHz
Sapphire 31 Jul 09:51:41 09:57:10 89° 54° (NE) 10:02:36 437.095 MHz 1200 baud AX-25 AFSK
UKube-1 31 Jul 09:57:43 10:00:06 14° 88° (E) 10:02:28 145.840 MHz, 145.915 MHz
HO-68 31 Jul 10:08:50 10:15:16 35° 95° (E) 10:21:39 435.675 MHz FM
AO-7 31 Jul 10:10:02 10:14:01 15° 334° (NNW) 10:18:00 29.400 - 29.500 MHz
JAS-2 31 Jul 10:12:06 10:16:17 20° 310° (NW) 10:20:12 435.800 - 435.900 CW/SSB, 435.910 FM
PCSat 31 Jul 10:25:00 10:30:17 53° 241° (WSW) 10:35:32 145.825 MHz
Oscar 11 31 Jul 10:39:20 10:42:39 21° 91° (E) 10:45:57 145.825 FM, Beacon 2401.500 USB
FUNcube-1 31 Jul 11:08:23 11:11:01 16° 89° (E) 11:13:38 145.950 - 145.970 MHz USB
JAS-1B 31 Jul 11:12:48 11:15:15 11° 16° (NNE) 11:17:41 435.800 - 435.900 CW/SSB
Saudisat 1A 31 Jul 11:30:21 11:33:16 17° 345° (NNW) 11:36:12 436.775 MHz
UKube-1 31 Jul 11:32:29 11:36:52 77° 287° (WNW) 11:41:12 145.840 MHz, 145.915 MHz
Sapphire 31 Jul 11:36:15 11:39:54 19° 254° (WSW) 11:43:31 437.095 MHz 1200 baud AX-25 AFSK
KITSAT 1 31 Jul 11:42:02 11:48:50 28° 2° (N) 11:55:37 435.175 FM
HO-68 31 Jul 11:56:21 12:03:22 61° 296° (WNW) 12:10:21 435.675 MHz FM
RS-15 31 Jul 12:05:18 12:10:18 14° 94° (E) 12:15:14 29.354 - 29.394 USB, Beacon 29.352 USB
Oscar 11 31 Jul 12:14:55 12:19:08 51° 290° (WNW) 12:23:20 145.825 FM, Beacon 2401.500 USB
FUNcube-1 31 Jul 12:43:43 12:47:51 63° 288° (WNW) 12:52:01 145.950 - 145.970 MHz USB
AO-Echo 31 Jul 12:47:11 12:49:10 12° 49° (NE) 12:51:08 ?
Oscar 19 31 Jul 12:49:41 12:53:25 21° 56° (NE) 12:57:11 437.125 CW, 437.150 USB
JAS-1B 31 Jul 12:55:09 13:02:17 25° 42° (NE) 13:09:32 435.800 - 435.900 CW/SSB
UKube-1 31 Jul 13:10:28 13:12:21 13° 307° (NW) 13:14:14 145.840 MHz, 145.915 MHz
Saudisat 1A 31 Jul 13:11:49 13:14:31 16° 10° (N) 13:17:12 436.775 MHz
Oscar 16 31 Jul 13:17:29 13:22:02 34° 63° (ENE) 13:26:37 437.025 USB, Beacon 2401.1428
SO-50 31 Jul 13:24:36 13:29:01 60° 126° (SE) 13:33:33 436.795 FM
KITSAT 1 31 Jul 13:38:54 13:46:32 42° 31° (NNE) 13:54:07 435.175 FM
ITAMSAT 1 31 Jul 13:44:15 13:48:40 29° 60° (ENE) 13:53:06 435.822 SSB
HO-68 31 Jul 13:45:17 13:49:47 18° 318° (NW) 13:54:17 435.675 MHz FM
AO-7 31 Jul 13:48:06 13:52:35 16° 29° (NNE) 13:57:03 29.400 - 29.500 MHz
Uribyol 2 31 Jul 14:02:28 14:07:17 40° 65° (ENE) 14:12:07 436.500 FM
AO-27 31 Jul 14:03:39 14:08:30 40° 64° (ENE) 14:13:21 436.795 MHz FM
RS-15 31 Jul 14:09:18 14:19:58 57° 118° (ESE) 14:30:30 29.354 - 29.394 USB, Beacon 29.352 USB
TMSAT-1 31 Jul 14:16:48 14:20:35 20° 55° (NE) 14:24:23 436.925 FM
AO-Echo 31 Jul 14:21:42 14:26:53 55° 69° (ENE) 14:32:03 ?
Oscar 19 31 Jul 14:27:08 14:32:15 76° 256° (WSW) 14:37:25 437.125 CW, 437.150 USB
Gurwin Techsat 1B 31 Jul 14:41:36 14:46:27 38° 64° (ENE) 14:51:19 435.225 FM
JAS-1B 31 Jul 14:41:47 14:50:59 64° 65° (ENE) 15:00:45 435.800 - 435.900 CW/SSB
Uosat F 31 Jul 14:47:49 14:48:40 10° 47° (NE) 14:49:32 435.120 FM
Saudisat 1A 31 Jul 14:51:22 14:55:23 32° 33° (NNE) 14:59:22 436.775 MHz
Oscar 16 31 Jul 14:56:28 15:01:19 42° 262° (W) 15:06:13 437.025 USB, Beacon 2401.1428
SO-50 31 Jul 15:05:48 15:09:53 32° 328° (NNW) 15:14:04 436.795 FM
UOSAT-12 31 Jul 15:10:04 15:14:34 53° 125° (SE) 15:19:10 437.025 FM, 437.400 FM
ITAMSAT 1 31 Jul 15:22:51 15:27:56 52° 260° (W) 15:33:03 435.822 SSB
KITSAT 1 31 Jul 15:34:33 15:42:39 78° 235° (SW) 15:50:42 435.175 FM
AO-7 31 Jul 15:35:36 15:43:16 42° 54° (NE) 15:50:56 29.400 - 29.500 MHz
Uribyol 2 31 Jul 15:42:05 15:46:50 35° 264° (W) 15:51:36 436.500 FM
AO-27 31 Jul 15:43:17 15:48:05 36° 264° (W) 15:52:53 436.795 MHz FM
TMSAT-1 31 Jul 15:54:37 15:59:56 82° 255° (WSW) 16:05:17 436.925 FM
AO-Echo 31 Jul 16:01:28 16:05:56 27° 268° (W) 16:10:25 ?
Oscar 19 31 Jul 16:10:30 16:12:31 12° 276° (W) 16:14:33 437.125 CW, 437.150 USB
Gurwin Techsat 1B 31 Jul 16:21:27 16:26:25 40° 263° (W) 16:31:25 435.225 FM
RS-15 31 Jul 16:21:30 16:32:23 61° 325° (NW) 16:43:15 29.354 - 29.394 USB, Beacon 29.352 USB
Uosat F 31 Jul 16:21:30 16:26:21 49° 67° (ENE) 16:31:14 435.120 FM
Saudisat 1A 31 Jul 16:30:53 16:35:13 55° 234° (SW) 16:39:31 436.775 MHz
JAS-1B 31 Jul 16:33:03 16:41:49 45° 267° (W) 16:51:14 435.800 - 435.900 CW/SSB
SO-50 31 Jul 16:48:51 16:51:49 17° 352° (N) 16:54:48 436.795 FM
UOSAT-12 31 Jul 16:50:37 16:54:56 36° 326° (NW) 16:59:20 437.025 FM, 437.400 FM
JAS-2 31 Jul 16:59:14 17:04:32 22° 52° (NE) 17:09:30 435.800 - 435.900 CW/SSB, 435.910 FM
OPAL 31 Jul 17:18:11 17:22:38 30° 97° (E) 17:27:06 ?
AO-7 31 Jul 17:27:32 17:35:48 62° 256° (WSW) 17:44:07 29.400 - 29.500 MHz
KITSAT 1 31 Jul 17:31:13 17:36:50 21° 257° (WSW) 17:42:27 435.175 FM
TMSAT-1 31 Jul 17:37:59 17:40:43 14° 275° (W) 17:43:27 436.925 FM
Uosat F 31 Jul 18:01:06 18:05:23 28° 266° (W) 18:09:43 435.120 FM
Hamsat 31 Jul 18:28:38 18:32:47 63° 72° (ENE) 18:36:58 145.90 MHz
SO-50 31 Jul 18:30:42 18:34:04 19° 17° (NNE) 18:37:28 436.795 FM
JAS-1B 31 Jul 18:33:07 18:35:13 11° 291° (WNW) 18:37:20 435.800 - 435.900 CW/SSB
SO-67 31 Jul 18:33:12 18:34:29 12° 59° (ENE) 18:35:46 435.3500 MHz FM
UOSAT-12 31 Jul 18:33:13 18:36:23 17° 349° (N) 18:39:34 437.025 FM, 437.400 FM
RS-15 31 Jul 18:37:02 18:47:11 41° 357° (N) 18:57:27 29.354 - 29.394 USB, Beacon 29.352 USB
JAS-2 31 Jul 18:41:04 18:48:42 76° 71° (ENE) 18:55:40 435.800 - 435.900 CW/SSB, 435.910 FM
OPAL 31 Jul 18:56:51 19:01:43 48° 296° (WNW) 19:06:37 ?
HO-68 31 Jul 18:59:54 19:03:22 14° 37° (NE) 19:06:50 435.675 MHz FM
AO-7 31 Jul 19:26:07 19:30:24 15° 278° (W) 19:34:43 29.400 - 29.500 MHz
STRAND 1 31 Jul 19:46:12 19:50:30 27° 93° (E) 19:54:47 ?
SO-67 31 Jul 20:03:35 20:07:03 74° 258° (WSW) 20:10:33 435.3500 MHz FM
Hamsat 31 Jul 20:06:32 20:09:12 16° 271° (W) 20:11:52 145.90 MHz
SO-50 31 Jul 20:11:07 20:15:42 47° 39° (NE) 20:20:20 436.795 FM
UOSAT-12 31 Jul 20:14:55 20:18:15 18° 14° (NNE) 20:21:34 437.025 FM, 437.400 FM
JAS-2 31 Jul 20:27:52 20:34:15 29° 269° (W) 20:40:15 435.800 - 435.900 CW/SSB, 435.910 FM
OPAL 31 Jul 20:38:20 20:39:30 11° 316° (NW) 20:40:40 ?
